When you browse on this site, cookies collect data to enhance your experience and personalize the content and advertising you see.
Visit our Privacy Policy to learn more. By continuing to use the site, you agree to this use of cookies and data.
  • In Lithuania
  • List of Countries
  • For 7 days
  • Water Temperature
  • Weather Map
  • Weather Widgets
  • user-avatar
    Login

    Hourly Weather Lupan

    Today, 22 August, Thursday

    Time Temperature Precipitation Wind Pressure Humidity
    00:00 +20°C° 0 mm 2 mps 746 mmHg 85%
    01:00 +20°C° 0 mm 2 mps 746 mmHg 86%
    02:00 +20°C° 0 mm 2 mps 745 mmHg 87%
    03:00 +20°C° 0 mm 2 mps 745 mmHg 88%
    04:00 +21°C° 0 mm 1 mps 745 mmHg 88%
    05:00 +20°C° 0 mm 1 mps 745 mmHg 88%
    06:00 +20°C° 0 mm 1 mps 745 mmHg 88%
    07:00 +22°C° 0 mm 1 mps 745 mmHg 82%
    08:00 +23°C° 0 mm 1 mps 745 mmHg 76%
    09:00 +25°C° 0 mm 1 mps 745 mmHg 68%
    10:00 +26°C° 0 mm 1 mps 745 mmHg 65%
    11:00 +27°C° 0 mm 1 mps 745 mmHg 61%
    12:00 +28°C° 0 mm 1 mps 744 mmHg 58%
    13:00 +28°C° 0.2 mm 1 mps 745 mmHg 57%
    14:00 +29°C° 0.2 mm 2 mps 745 mmHg 57%
    15:00 +29°C° 0.2 mm 2 mps 745 mmHg 57%
    16:00 +27°C° 0.7 mm 3 mps 745 mmHg 64%
    17:00 +26°C° 0.7 mm 4 mps 745 mmHg 72%
    18:00 +25°C° 0.7 mm 5 mps 745 mmHg 80%
    19:00 +22°C° 0.2 mm 5 mps 745 mmHg 83%
    20:00 +21°C° 0.2 mm 5 mps 746 mmHg 85%
    21:00 +19°C° 0.2 mm 5 mps 746 mmHg 88%
    22:00 +19°C° 0 mm 5 mps 746 mmHg 87%
    23:00 +17°C° 0 mm 5 mps 746 mmHg 87%

    Tomorrow, 23 August, Friday

    Time Temperature Precipitation Wind Pressure Humidity
    00:00 +16°C° 0 mm 5 mps 747 mmHg 86%
    01:00 +16°C° 0 mm 5 mps 747 mmHg 87%
    02:00 +15°C° 0 mm 4 mps 747 mmHg 88%
    03:00 +14°C° 0 mm 4 mps 748 mmHg 89%
    04:00 +14°C° 0 mm 4 mps 748 mmHg 90%
    05:00 +14°C° 0 mm 4 mps 748 mmHg 91%
    06:00 +13°C° 0 mm 4 mps 748 mmHg 91%
    07:00 +14°C° 0 mm 4 mps 748 mmHg 87%
    08:00 +15°C° 0 mm 4 mps 748 mmHg 83%
    09:00 +18°C° 0 mm 4 mps 749 mmHg 79%
    10:00 +19°C° 0 mm 4 mps 749 mmHg 74%
    11:00 +20°C° 0 mm 4 mps 749 mmHg 69%
    12:00 +21°C° 0 mm 4 mps 749 mmHg 65%
    13:00 +21°C° 0 mm 4 mps 749 mmHg 63%
    14:00 +21°C° 0 mm 4 mps 749 mmHg 61%
    15:00 +22°C° 0 mm 5 mps 749 mmHg 59%
    16:00 +21°C° 0 mm 4 mps 748 mmHg 62%
    17:00 +21°C° 0 mm 3 mps 748 mmHg 64%
    18:00 +20°C° 0 mm 3 mps 748 mmHg 67%
    19:00 +19°C° 0 mm 3 mps 748 mmHg 70%
    20:00 +17°C° 0 mm 2 mps 748 mmHg 74%
    21:00 +16°C° 0 mm 2 mps 749 mmHg 77%
    22:00 +15°C° 0 mm 2 mps 749 mmHg 79%
    23:00 +15°C° 0 mm 2 mps 748 mmHg 81%

    Day after tomorrow, 24 August, Saturday

    Time Temperature Precipitation Wind Pressure Humidity
    00:00 +15°C° 0 mm 2 mps 748 mmHg 83%
    01:00 +14°C° 0 mm 2 mps 748 mmHg 84%
    02:00 +14°C° 0 mm 2 mps 749 mmHg 86%
    03:00 +14°C° 0 mm 2 mps 749 mmHg 87%
    04:00 +13°C° 0 mm 2 mps 749 mmHg 87%
    05:00 +13°C° 0 mm 2 mps 748 mmHg 87%
    06:00 +13°C° 0 mm 1 mps 748 mmHg 87%
    07:00 +15°C° 0 mm 1 mps 749 mmHg 81%
    08:00 +18°C° 0 mm 1 mps 749 mmHg 74%
    09:00 +19°C° 0 mm 1 mps 749 mmHg 68%
    10:00 +21°C° 0 mm 1 mps 749 mmHg 61%
    11:00 +22°C° 0 mm 1 mps 748 mmHg 55%
    12:00 +23°C° 0 mm 1 mps 748 mmHg 49%
    13:00 +24°C° 0 mm 1 mps 748 mmHg 47%
    14:00 +24°C° 0 mm 1 mps 748 mmHg 45%
    15:00 +24°C° 0 mm 2 mps 748 mmHg 43%
    16:00 +24°C° 0 mm 2 mps 747 mmHg 48%
    17:00 +23°C° 0 mm 2 mps 747 mmHg 53%
    18:00 +23°C° 0 mm 2 mps 747 mmHg 58%
    19:00 +20°C° 0 mm 2 mps 747 mmHg 62%
    20:00 +19°C° 0 mm 2 mps 747 mmHg 66%
    21:00 +18°C° 0 mm 1 mps 747 mmHg 69%
    22:00 +17°C° 0 mm 2 mps 747 mmHg 71%
    23:00 +16°C° 0 mm 2 mps 747 mmHg 73%

    25 August, Sunday

    Time Temperature Precipitation Wind Pressure Humidity
    00:00 +16°C° 0 mm 2 mps 746 mmHg 75%
    01:00 +15°C° 0 mm 2 mps 746 mmHg 77%
    02:00 +15°C° 0 mm 2 mps 746 mmHg 80%
    03:00 +15°C° 0 mm 2 mps 746 mmHg 83%
    04:00 +14°C° 0 mm 2 mps 746 mmHg 85%
    05:00 +14°C° 0 mm 2 mps 746 mmHg 88%
    06:00 +13°C° 0 mm 3 mps 746 mmHg 91%
    07:00 +16°C° 0 mm 3 mps 746 mmHg 87%
    08:00 +17°C° 0 mm 3 mps 746 mmHg 82%
    09:00 +19°C° 0 mm 3 mps 746 mmHg 78%
    10:00 +20°C° 0.1 mm 4 mps 746 mmHg 74%
    11:00 +21°C° 0.1 mm 4 mps 746 mmHg 69%
    12:00 +22°C° 0.1 mm 5 mps 746 mmHg 64%
    13:00 +22°C° 0 mm 5 mps 746 mmHg 61%
    14:00 +22°C° 0 mm 5 mps 746 mmHg 57%
    15:00 +22°C° 0 mm 5 mps 746 mmHg 54%
    16:00 +21°C° 0 mm 5 mps 746 mmHg 58%
    17:00 +21°C° 0 mm 4 mps 747 mmHg 62%
    18:00 +20°C° 0 mm 4 mps 747 mmHg 66%
    19:00 +18°C° 0 mm 3 mps 747 mmHg 70%
    20:00 +17°C° 0 mm 3 mps 747 mmHg 75%
    21:00 +16°C° 0 mm 3 mps 748 mmHg 79%
    22:00 +14°C° 0 mm 3 mps 748 mmHg 82%
    23:00 +13°C° 0 mm 3 mps 749 mmHg 84%

    26 August, Monday

    Time Temperature Precipitation Wind Pressure Humidity
    00:00 +12°C° 0 mm 3 mps 749 mmHg 86%
    01:00 +12°C° 0 mm 3 mps 749 mmHg 88%
    02:00 +11°C° 0 mm 3 mps 749 mmHg 89%
    03:00 +12°C° 0 mm 2 mps 749 mmHg 91%
    04:00 +12°C° 0 mm 2 mps 750 mmHg 92%
    05:00 +10°C° 0 mm 2 mps 750 mmHg 93%
    06:00 +10°C° 0 mm 2 mps 750 mmHg 95%
    07:00 +13°C° 0 mm 2 mps 750 mmHg 88%
    08:00 +14°C° 0 mm 2 mps 751 mmHg 82%
    09:00 +16°C° 0 mm 2 mps 751 mmHg 75%
    10:00 +17°C° 0 mm 2 mps 751 mmHg 69%
    11:00 +18°C° 0 mm 2 mps 751 mmHg 63%
    12:00 +19°C° 0 mm 2 mps 751 mmHg 57%
    13:00 +20°C° 0 mm 2 mps 751 mmHg 55%
    14:00 +22°C° 0 mm 1 mps 750 mmHg 52%
    15:00 +22°C° 0 mm 1 mps 750 mmHg 49%
    16:00 +22°C° 0 mm 1 mps 750 mmHg 52%
    17:00 +22°C° 0 mm 1 mps 749 mmHg 55%
    18:00 +19°C° 0 mm 0 mps 749 mmHg 58%
    19:00 +20°C° 0 mm 1 mps 749 mmHg 61%
    20:00 +18°C° 0 mm 1 mps 749 mmHg 64%
    21:00 +15°C° 0 mm 1 mps 749 mmHg 67%
    22:00 +15°C° 0 mm 1 mps 749 mmHg 69%
    23:00 +15°C° 0 mm 1 mps 749 mmHg 70%

    27 August, Tuesday

    Time Temperature Precipitation Wind Pressure Humidity
    00:00 +14°C° 0 mm 1 mps 749 mmHg 72%
    01:00 +14°C° 0 mm 1 mps 748 mmHg 72%
    02:00 +14°C° 0 mm 1 mps 748 mmHg 72%
    03:00 +14°C° 0 mm 2 mps 748 mmHg 71%
    04:00 +14°C° 0 mm 2 mps 747 mmHg 73%
    05:00 +14°C° 0 mm 2 mps 747 mmHg 75%
    06:00 +13°C° 0 mm 2 mps 747 mmHg 77%
    07:00 +15°C° 0 mm 2 mps 746 mmHg 74%
    08:00 +16°C° 0 mm 3 mps 746 mmHg 71%
    09:00 +17°C° 0 mm 3 mps 746 mmHg 68%
    10:00 +19°C° 0 mm 3 mps 746 mmHg 64%
    11:00 +20°C° 0 mm 4 mps 745 mmHg 59%
    12:00 +21°C° 0 mm 4 mps 745 mmHg 55%
    13:00 +21°C° 0 mm 4 mps 744 mmHg 56%
    14:00 +21°C° 0 mm 5 mps 743 mmHg 56%
    15:00 +21°C° 0 mm 5 mps 743 mmHg 56%
    16:00 +20°C° 0 mm 5 mps 742 mmHg 60%
    17:00 +20°C° 0 mm 4 mps 742 mmHg 65%
    18:00 +19°C° 0 mm 4 mps 742 mmHg 69%
    19:00 +18°C° 1 mm 3 mps 741 mmHg 77%
    20:00 +17°C° 1 mm 3 mps 741 mmHg 84%
    21:00 +16°C° 1 mm 3 mps 741 mmHg 92%
    22:00 +14°C° 0.1 mm 3 mps 741 mmHg 93%
    23:00 +14°C° 0.1 mm 3 mps 741 mmHg 94%
    Show more